This demonstration page uses our WeatherBlox Daily Observations layout. Learn more.

38.80484, -77.04692

Hourly Observations for January 14, 2019

Temp ( °F °C ) Dew Point ( °F °C ) Humidity (%) Winds ( mph kmh ) Pressure ( in mb ) Visibility ( mi km ) Precip ( " mm )
12:52 am 00:52 Cloudy with Light Snow 30 -1.1 25 -3.9 82 82 N 10 17 30.24 1024 4 6.437376 0.001 0.001
1:52 am 01:52 Cloudy with Light Snow 30 -1.1 23 -5 75 75 N 13 20 30.24 1024 10 16.09344 0.001 0.001
2:52 am 02:52 Cloudy 30 -1.1 22 -5.6 72 72 NNW 12 19 30.24 1024 10 16.09344 0.001 0.001
3:52 am 03:52 Cloudy 30 -1.1 22 -5.6 72 72 NNW 10 17 30.27 1025 10 16.09344 0 0
4:50 am 04:50 Cloudy 30 -1 21 -6 69 69 NNW 9 15 30.27 1025 10 16.09344 0 0
4:52 am 04:52 Cloudy 30 -1.1 22 -5.6 72 72 NNW 8 13 30.24 1024 10 16.09344 0 0
5:25 am 05:25 Cloudy 30 -1.1 21 -6.1 69 69 N 9 15 30.27 1025 10 16.09344 0 0
5:42 am 05:42 Cloudy 30 -1.1 20 -6.7 66 66 N 10 17 30.27 1025 10 16.09344 0 0
5:52 am 05:52 Cloudy 30 -1.1 20 -6.7 66 66 N 10 17 30.24 1024 10 16.09344 0 0
6:52 am 06:52 Mostly Cloudy 30 -1.1 17 -8.3 58 58 N 9 15 30.27 1025 10 16.09344 0 0
7:52 am 07:52 Cloudy 30 -1.1 18 -7.8 61 61 N 8 13 30.27 1025 10 16.09344 0 0
8:52 am 08:52 Cloudy 30 -1.1 18 -7.8 61 61 N 10 17 30.27 1025 10 16.09344 0 0
9:52 am 09:52 Cloudy 31 -0.6 17 -8.3 56 56 N 12 19 30.3 1026 10 16.09344 0 0
10:52 am 10:52 Mostly Cloudy 32 0 18 -7.8 56 56 N 7 11 30.3 1026 10 16.09344 0 0
11:52 am 11:52 Mostly Cloudy 33 0.6 18 -7.8 54 54 N 8 13 30.27 1025 10 16.09344 0 0
12:52 pm 12:52 Mostly Cloudy 34 1.1 16 -8.9 48 48 NNE 7 11 30.24 1024 10 16.09344 0 0
1:52 pm 13:52 Partly Cloudy 36 2.2 15 -9.4 42 42 NNE 5 7 30.24 1024 10 16.09344 0 0
2:52 pm 14:52 Mostly Sunny 36 2.2 16 -8.9 44 44 Calm 30.21 1023 10 16.09344 0 0
3:52 pm 15:52 Mostly Sunny 36 2.2 16 -8.9 44 44 Calm 30.21 1023 10 16.09344 0 0
4:52 pm 16:52 Mostly Sunny 37 2.8 15 -9.4 41 41 NNW 7 11 30.21 1023 10 16.09344 0 0
5:52 pm 17:52 Clear 35 1.7 17 -8.3 48 48 WNW 6 9 30.21 1023 10 16.09344 0 0
6:52 pm 18:52 Clear 34 1.1 17 -8.3 50 50 NNW 8 13 30.21 1023 10 16.09344 0 0
7:52 pm 19:52 Clear 34 1.1 18 -7.8 52 52 W 3 6 30.21 1023 10 16.09344 0 0
8:52 pm 20:52 Clear 32 0 21 -6.1 64 64 WSW 5 7 30.18 1022 10 16.09344 0 0
9:52 pm 21:52 Clear 30 -1.1 21 -6.1 69 69 Calm 30.18 1022 10 16.09344 0 0
10:52 pm 22:52 Mostly Clear 30 -1.1 24 -4.4 79 79 Calm 30.21 1023 10 16.09344 0 0
11:52 pm 23:52 Mostly Clear 28 -2.2 21 -6.1 75 75 Calm 30.21 1023 10 16.09344 0 0

Powered by AerisWeather